Time,TemperatureF,DewpointF,PressureIn,WindDirection,WindDirectionDegrees,WindSpeedMPH,WindSpeedGustMPH,Humidity,HourlyPrecipIn,Conditions,Clouds,dailyrainin,SoftwareType,DateUTC
2013-04-10 00:13:00,52.7,43.9,30.00,NNW,337,0.0,-999.0,72,-99.99,,,0.00,Acu-Link.com,2013-04-10 07:13:00,
2013-04-10 00:28:00,52.5,44.1,30.00,NW,315,0.0,-999.0,73,-99.99,,,0.00,Acu-Link.com,2013-04-10 07:28:00,
2013-04-10 00:43:00,52.5,44.1,30.00,West,270,0.0,-999.0,73,-99.99,,,0.00,Acu-Link.com,2013-04-10 07:43:00,
2013-04-10 00:58:00,52.3,43.9,30.00,West,270,0.0,-999.0,73,-99.99,,,0.00,Acu-Link.com,2013-04-10 07:58:00,
2013-04-10 01:14:00,52.3,44.3,30.00,WNW,292,0.0,-999.0,74,-99.99,,,0.00,Acu-Link.com,2013-04-10 08:14:00,
2013-04-10 01:29:00,52.3,44.3,30.00,West,270,0.0,-999.0,74,-99.99,,,0.00,Acu-Link.com,2013-04-10 08:29:00,
2013-04-10 01:45:00,51.8,44.1,30.00,West,270,0.0,-999.0,75,-99.99,,,0.00,Acu-Link.com,2013-04-10 08:45:00,
2013-04-10 02:00:00,52.0,44.3,29.99,West,270,1.1,-999.0,75,-99.99,,,0.00,Acu-Link.com,2013-04-10 09:00:00,
2013-04-10 02:15:00,52.2,43.4,29.99,West,270,1.7,-999.0,72,-99.99,,,0.00,Acu-Link.com,2013-04-10 09:15:00,
2013-04-10 02:30:00,52.3,43.5,30.00,NW,315,0.0,-999.0,72,-99.99,,,0.00,Acu-Link.com,2013-04-10 09:30:00,
2013-04-10 02:45:00,53.6,43.3,29.98,NNW,337,1.7,-999.0,68,-99.99,,,0.00,Acu-Link.com,2013-04-10 09:45:00,
2013-04-10 03:00:00,54.3,43.2,29.99,NE,45,1.7,-999.0,66,-99.99,,,0.00,Acu-Link.com,2013-04-10 10:00:00,
2013-04-10 03:15:00,54.9,43.0,29.99,NNE,22,0.0,-999.0,64,-99.99,,,0.00,Acu-Link.com,2013-04-10 10:15:00,
2013-04-10 03:31:00,55.2,42.8,29.99,NNW,337,0.0,-999.0,63,-99.99,,,0.00,Acu-Link.com,2013-04-10 10:31:00,
2013-04-10 04:16:00,53.4,42.3,30.00,WSW,247,2.7,-999.0,66,-99.99,,,0.00,Acu-Link.com,2013-04-10 11:16:00,
2013-04-10 04:46:00,52.3,42.4,30.02,West,270,0.0,-999.0,69,-99.99,,,0.00,Acu-Link.com,2013-04-10 11:46:00,
2013-04-10 05:01:00,52.0,42.1,30.02,West,270,0.0,-999.0,69,-99.99,,,0.00,Acu-Link.com,2013-04-10 12:01:00,
2013-04-10 05:31:00,50.9,42.2,30.03,West,270,0.0,-999.0,72,-99.99,,,0.00,Acu-Link.com,2013-04-10 12:31:00,
2013-04-10 05:47:00,50.0,42.0,30.03,WNW,292,1.1,-999.0,74,-99.99,,,0.00,Acu-Link.com,2013-04-10 12:47:00,
2013-04-10 06:02:00,49.5,41.9,30.04,West,270,0.0,-999.0,75,-99.99,,,0.00,Acu-Link.com,2013-04-10 13:02:00,
2013-04-10 06:17:00,49.3,42.1,30.04,West,270,1.7,-999.0,76,-99.99,,,0.00,Acu-Link.com,2013-04-10 13:17:00,
2013-04-10 06:47:00,49.1,42.2,30.05,WSW,247,1.1,-999.0,77,-99.99,,,0.00,Acu-Link.com,2013-04-10 13:47:00,
2013-04-10 07:02:00,49.1,42.5,30.06,West,270,1.1,-999.0,78,-99.99,,,0.00,Acu-Link.com,2013-04-10 14:02:00,
2013-04-10 07:17:00,49.6,43.0,30.06,West,270,1.7,-999.0,78,-99.99,,,0.00,Acu-Link.com,2013-04-10 14:17:00,
2013-04-10 07:32:00,50.7,43.4,30.07,West,270,1.7,-999.0,76,-99.99,,,0.00,Acu-Link.com,2013-04-10 14:32:00,
2013-04-10 07:47:00,55.2,46.7,30.07,SW,225,1.1,-999.0,73,-99.99,,,0.00,Acu-Link.com,2013-04-10 14:47:00,
2013-04-10 08:03:00,60.3,49.3,30.08,NW,315,1.7,-999.0,67,-99.99,,,0.00,Acu-Link.com,2013-04-10 15:03:00,
2013-04-10 08:18:00,65.1,51.3,30.09,WNW,292,0.0,-999.0,61,-99.99,,,0.00,Acu-Link.com,2013-04-10 15:18:00,
2013-04-10 08:33:00,70.2,52.8,30.09,ESE,112,0.0,-999.0,54,-99.99,,,0.00,Acu-Link.com,2013-04-10 15:33:00,
2013-04-10 08:48:00,70.7,50.0,30.08,ESE,112,1.7,-999.0,48,-99.99,,,0.00,Acu-Link.com,2013-04-10 15:48:00,
2013-04-10 09:03:00,73.8,51.7,30.09,SE,135,2.2,-999.0,46,-99.99,,,0.00,Acu-Link.com,2013-04-10 16:03:00,
2013-04-10 09:18:00,74.3,49.7,30.08,SE,135,2.2,-999.0,42,-99.99,,,0.00,Acu-Link.com,2013-04-10 16:18:00,
2013-04-10 09:33:00,76.6,49.1,30.08,North,0,2.7,-999.0,38,-99.99,,,0.00,Acu-Link.com,2013-04-10 16:33:00,
2013-04-10 09:49:00,77.5,48.4,30.09,SSW,202,2.7,-999.0,36,-99.99,,,0.00,Acu-Link.com,2013-04-10 16:49:00,
2013-04-10 10:04:00,78.4,48.5,30.09,NNW,337,4.2,-999.0,35,-99.99,,,0.00,Acu-Link.com,2013-04-10 17:04:00,
2013-04-10 10:19:00,79.5,48.7,30.09,ENE,67,3.2,-999.0,34,-99.99,,,0.00,Acu-Link.com,2013-04-10 17:19:00,
2013-04-10 10:34:00,81.1,48.4,30.09,WNW,292,2.7,-999.0,32,-99.99,,,0.00,Acu-Link.com,2013-04-10 17:34:00,
2013-04-10 10:49:00,82.4,48.7,30.09,ESE,112,2.7,-999.0,31,-99.99,,,0.00,Acu-Link.com,2013-04-10 17:49:00,
2013-04-10 11:04:00,82.8,46.3,30.09,East,90,2.7,-999.0,28,-99.99,,,0.00,Acu-Link.com,2013-04-10 18:04:00,
2013-04-10 11:19:00,83.3,46.8,30.08,SW,225,2.7,-999.0,28,-99.99,,,0.00,Acu-Link.com,2013-04-10 18:19:00,
2013-04-10 11:34:00,84.4,44.7,30.08,NNE,22,3.7,-999.0,25,-99.99,,,0.00,Acu-Link.com,2013-04-10 18:34:00,
2013-04-10 11:50:00,85.3,45.5,30.07,NE,45,2.7,-999.0,25,-99.99,,,0.00,Acu-Link.com,2013-04-10 18:50:00,
2013-04-10 12:05:00,84.9,45.1,30.07,ESE,112,2.2,-999.0,25,-99.99,,,0.00,Acu-Link.com,2013-04-10 19:05:00,
2013-04-10 12:20:00,84.6,44.9,30.06,ENE,67,3.2,-999.0,25,-99.99,,,0.00,Acu-Link.com,2013-04-10 19:20:00,
2013-04-10 12:35:00,86.5,45.4,30.06,SSE,157,2.2,-999.0,24,-99.99,,,0.00,Acu-Link.com,2013-04-10 19:35:00,
2013-04-10 12:50:00,87.3,46.1,30.05,NNE,22,4.2,-999.0,24,-99.99,,,0.00,Acu-Link.com,2013-04-10 19:50:00,
2013-04-10 13:05:00,86.7,45.6,30.04,NNE,22,4.7,-999.0,24,-99.99,,,0.00,Acu-Link.com,2013-04-10 20:05:00,
2013-04-10 13:20:00,88.9,47.4,30.04,SE,135,4.2,-999.0,24,-99.99,,,0.00,Acu-Link.com,2013-04-10 20:20:00,
2013-04-10 13:35:00,89.4,45.5,30.02,SW,225,3.2,-999.0,22,-99.99,,,0.00,Acu-Link.com,2013-04-10 20:35:00,
2013-04-10 13:50:00,89.4,46.7,30.02,South,180,2.2,-999.0,23,-99.99,,,0.00,Acu-Link.com,2013-04-10 20:50:00,
2013-04-10 14:06:00,90.7,45.4,30.01,SSE,157,2.2,-999.0,21,-99.99,,,0.00,Acu-Link.com,2013-04-10 21:06:00,
2013-04-10 14:21:00,89.2,44.1,30.00,SW,225,5.8,-999.0,21,-99.99,,,0.00,Acu-Link.com,2013-04-10 21:21:00,
2013-04-10 15:06:00,90.5,47.6,29.98,NW,315,3.2,-999.0,23,-99.99,,,0.00,Acu-Link.com,2013-04-10 22:06:00,
2013-04-10 15:21:00,90.3,46.3,29.98,West,270,4.2,-999.0,22,-99.99,,,0.00,Acu-Link.com,2013-04-10 22:21:00,
2013-04-10 15:36:00,89.1,51.7,29.97,West,270,4.7,-999.0,28,-99.99,,,0.00,Acu-Link.com,2013-04-10 22:36:00,
2013-04-10 16:07:00,84.0,51.8,29.97,West,270,4.2,-999.0,33,-99.99,,,0.00,Acu-Link.com,2013-04-10 23:07:00,
2013-04-10 16:22:00,84.7,51.5,29.96,SSW,202,7.8,-999.0,32,-99.99,,,0.00,Acu-Link.com,2013-04-10 23:22:00,
2013-04-10 16:37:00,85.8,48.9,29.95,WSW,247,8.3,-999.0,28,-99.99,,,0.00,Acu-Link.com,2013-04-10 23:37:00,
2013-04-10 16:52:00,82.6,50.6,29.96,SW,225,9.4,-999.0,33,-99.99,,,0.00,Acu-Link.com,2013-04-10 23:52:00,
2013-04-10 17:07:00,81.9,51.5,29.95,SW,225,7.3,-999.0,35,-99.99,,,0.00,Acu-Link.com,2013-04-11 00:07:00,
2013-04-10 17:22:00,85.3,53.7,29.95,SE,135,4.2,-999.0,34,-99.99,,,0.00,Acu-Link.com,2013-04-11 00:22:00,
2013-04-10 17:38:00,80.1,52.2,29.95,SW,225,5.3,-999.0,38,-99.99,,,0.11,Acu-Link.com,2013-04-11 00:38:00,
2013-04-10 17:53:00,77.7,50.8,29.94,SW,225,5.8,-999.0,39,-99.99,,,0.11,Acu-Link.com,2013-04-11 00:53:00,
2013-04-10 18:08:00,75.2,51.2,29.95,SW,225,7.8,-999.0,43,-99.99,,,0.11,Acu-Link.com,2013-04-11 01:08:00,
2013-04-10 18:23:00,73.0,51.0,29.95,West,270,7.8,-999.0,46,-99.99,,,0.11,Acu-Link.com,2013-04-11 01:23:00,
2013-04-10 18:53:00,71.1,51.0,29.94,WSW,247,5.8,-999.0,49,-99.99,,,0.11,Acu-Link.com,2013-04-11 01:53:00,
2013-04-10 19:08:00,68.4,50.1,29.93,West,270,9.4,-999.0,52,-99.99,,,0.11,Acu-Link.com,2013-04-11 02:08:00,
2013-04-10 19:23:00,66.9,49.7,29.93,West,270,6.8,-999.0,54,-99.99,,,0.11,Acu-Link.com,2013-04-11 02:23:00,
2013-04-10 19:38:00,66.2,49.5,29.94,West,270,3.7,-999.0,55,-99.99,,,0.11,Acu-Link.com,2013-04-11 02:38:00,
2013-04-10 19:54:00,64.9,49.8,29.94,WSW,247,4.2,-999.0,58,-99.99,,,0.11,Acu-Link.com,2013-04-11 02:54:00,
2013-04-10 20:09:00,64.2,49.6,29.94,ENE,67,1.7,-999.0,59,-99.99,,,0.11,Acu-Link.com,2013-04-11 03:09:00,
2013-04-10 20:24:00,64.8,49.2,29.94,West,270,5.3,-999.0,57,-99.99,,,0.11,Acu-Link.com,2013-04-11 03:24:00,
2013-04-10 20:39:00,64.2,48.6,29.96,East,90,2.2,-999.0,57,-99.99,,,0.11,Acu-Link.com,2013-04-11 03:39:00,
2013-04-10 20:54:00,63.0,48.4,29.97,ESE,112,4.7,-999.0,59,-99.99,,,0.11,Acu-Link.com,2013-04-11 03:54:00,
2013-04-10 21:09:00,61.5,47.9,29.98,West,270,0.0,-999.0,61,-99.99,,,0.11,Acu-Link.com,2013-04-11 04:09:00,
2013-04-10 21:24:00,60.3,48.1,29.98,WNW,292,0.0,-999.0,64,-99.99,,,0.11,Acu-Link.com,2013-04-11 04:24:00,
2013-04-10 21:40:00,59.0,47.7,29.99,ESE,112,0.0,-999.0,66,-99.99,,,0.11,Acu-Link.com,2013-04-11 04:40:00,
2013-04-10 21:55:00,58.8,47.9,29.99,SW,225,2.7,-999.0,67,-99.99,,,0.11,Acu-Link.com,2013-04-11 04:55:00,
2013-04-10 22:10:00,59.0,48.5,29.99,WNW,292,1.1,-999.0,68,-99.99,,,0.11,Acu-Link.com,2013-04-11 05:10:00,
2013-04-10 22:25:00,58.5,48.7,30.00,NNE,22,1.1,-999.0,70,-99.99,,,0.11,Acu-Link.com,2013-04-11 05:25:00,
2013-04-10 22:40:00,57.9,48.9,30.00,East,90,2.2,-999.0,72,-99.99,,,0.11,Acu-Link.com,2013-04-11 05:40:00,
2013-04-10 22:55:00,58.3,49.3,30.00,NNE,22,1.7,-999.0,72,-99.99,,,0.11,Acu-Link.com,2013-04-11 05:55:00,
2013-04-10 23:10:00,58.3,49.3,29.99,NE,45,1.1,-999.0,72,-99.99,,,0.11,Acu-Link.com,2013-04-11 06:10:00,
2013-04-10 23:25:00,57.9,48.9,29.99,ENE,67,2.7,-999.0,72,-99.99,,,0.11,Acu-Link.com,2013-04-11 06:25:00,
2013-04-10 23:40:00,58.3,49.3,29.99,West,270,0.0,-999.0,72,-99.99,,,0.11,Acu-Link.com,2013-04-11 06:40:00,
2013-04-10 23:56:00,58.3,49.3,29.99,ESE,112,1.7,-999.0,72,-99.99,,,0.11,Acu-Link.com,2013-04-11 06:56:00,